This demonstration page uses our WeatherBlox Daily Observations layout. Learn more.

38.89511, -77.03637

Hourly Observations for August 22, 2015

Temp ( °F °C ) Dew Point ( °F °C ) Humidity (%) Winds ( mph kmh ) Pressure ( in mb ) Visibility ( mi km ) Precip ( " mm )
12:52 am 00:52 Partly Cloudy 72 22 59 15 65 65 NNW 7 11 30.09 1019 10 16.09344 0 0
1:52 am 01:52 Mostly Clear 70 21 59 15 69 69 NNW 6 9 30.09 1019 10 16.09344 0 0
2:52 am 02:52 Clear 68 20 57 14 69 69 NNW 7 11 30.09 1019 10 16.09344 0 0
3:52 am 03:52 Clear 68 20 59 15 73 73 NNW 7 11 30.09 1019 10 16.09344 0 0
4:52 am 04:52 Clear 66 19 57 14 73 73 NNW 8 13 30.09 1019 10 16.09344 0 0
5:52 am 05:52 Mostly Clear 64 18 59 15 83 83 NNW 8 13 30.12 1020 10 16.09344 0 0
6:52 am 06:52 Mostly Sunny 64 18 59 15 83 83 NNW 8 13 30.12 1020 10 16.09344 0 0
7:52 am 07:52 Partly Cloudy 70 21 57 14 64 64 N 6 9 30.15 1021 10 16.09344 0 0
8:52 am 08:52 Partly Cloudy 73 23 55 13 53 53 NNE 8 13 30.15 1021 10 16.09344 0 0
9:52 am 09:52 Partly Cloudy 75 24 55 13 50 50 NNE 7 11 30.15 1021 10 16.09344 0 0
10:52 am 10:52 Mostly Cloudy 79 26 55 13 45 45 ENE 7 11 30.15 1021 10 16.09344 0 0
11:52 am 11:52 Partly Cloudy 81 27 54 12 39 39 ENE 10 17 30.15 1021 10 16.09344 0 0
12:52 pm 12:52 Partly Cloudy 82 28 54 12 37 37 NE 5 7 30.12 1020 10 16.09344 0 0
1:52 pm 13:52 Partly Cloudy 84 29 54 12 35 35 NNE 6 9 30.12 1020 10 16.09344 0 0
2:52 pm 14:52 Partly Cloudy 84 29 54 12 35 35 Calm 30.09 1019 10 16.09344 0 0
3:52 pm 15:52 Partly Cloudy 86 30 52 11 31 31 NNW 7 11 30.09 1019 10 16.09344 0 0
4:52 pm 16:52 Partly Cloudy 86 30 52 11 31 31 WNW 6 9 30.09 1019 10 16.09344 0 0
5:52 pm 17:52 Partly Cloudy 84 29 52 11 33 33 NNE 5 7 30.06 1018 10 16.09344 0 0
6:52 pm 18:52 Mostly Sunny 82 28 54 12 37 37 NNE 8 13 30.06 1018 10 16.09344 0 0
7:52 pm 19:52 Partly Cloudy 79 26 57 14 48 48 SE 8 13 30.06 1018 10 16.09344 0 0
8:52 pm 20:52 Mostly Clear 75 24 57 14 54 54 SE 5 7 30.06 1018 10 16.09344 0 0
9:52 pm 21:52 Mostly Clear 75 24 57 14 54 54 Calm 30.09 1019 10 16.09344 0 0
10:52 pm 22:52 Clear 73 23 55 13 53 53 NE 6 9 30.09 1019 10 16.09344 0 0
11:52 pm 23:52 Mostly Clear 73 23 54 12 50 50 NNE 5 7 30.09 1019 10 16.09344 0 0

Powered by AerisWeather